Voltar ao catálogo

FENGYUN 1C DEB

AtivoPO
NORAD 35194·DEBRIS·🇨🇳 China

Lançado May 10, 1999 de Taiyuan Satellite Launch Center

Loading…

Próximas Passagens (próximas 24 horas)

TLE

AtualizadoSource: Space-Track

Época: Sep 14, 2026, 13:06 UTC

1 35194U 99025DPA 26257.54638949  .00002103  00000-0  39173-3 0  9999
2 35194  98.9487   8.2427 0108520 311.6806  47.5143 14.62599176694196

Acompanhe FENGYUN 1C DEB em tempo real com AllMySat

Download on the App Store